Regional Weather Roundup
Issued by NWS

Current Version | Previous Version | Text Only | Print | Product List | Glossary On
Versions: 1 2 3 4 5 6 7 8 9 10 11 12 13 14 15 16 17 18 19 20 21 22 23 24 25 26 27 28 29 30 31 32 33 34 35 36 37 38 39 40 41 42 43 44 45 46 47 48
000
ASUS45 KSLC 022210
RWRUT

UTAH REGIONAL WEATHER ROUNDUP
NATIONAL WEATHER SERVICE SALT LAKE CITY UT
400 PM MDT WED SEP 02 2015

UTZ001>011-023>025-022300-

NORTHERN UTAH

CITY           SKY/WX    TMP DP  RH WIND       PRES   REMARKS
BRIGHAM CITY   MOSUNNY   90  31  12 SW15G23   29.91F
HILL AFB       PTSUNNY   86  43  22 SE8       29.95F
LOGAN          SUNNY     88  39  17 SW16G28   29.92F
OGDEN          PTSUNNY   88  42  20 SW9       29.92F
PROVO AIRPORT  MOSUNNY   90  46  22 S12       29.96F
SALT LAKE CITY PTSUNNY   91  39  16 S22G32    29.89F
VERNAL         MOSUNNY   85  39  19 SW14G20   30.03F
WENDOVER       MOSUNNY   91  37  15 SW18      29.87F
HEBER CITY     MOSUNNY   82  37  20 SW12G24   30.03F
WEST JORDAN    SUNNY     90  43  19 S24G31    29.93F

$$

UTZ012>022-026-027-022300-

SOUTHERN/CENTRAL UTAH

CITY           SKY/WX    TMP DP  RH WIND       PRES   REMARKS
BLANDING       MOSUNNY   84  42  22 S9G16     30.20F
BRYCE CANYON   PTSUNNY   73  40  30 S17       30.26F
CEDAR CITY     MOSUNNY   83  34  17 SW22G31   30.08F
DELTA          SUNNY     90  34  14 S15G25    29.97F
HANKSVILLE     SUNNY     91  36  14 S12G21    30.00F
MILFORD        SUNNY     88  37  16 SW23G37   30.01F
MOAB/CYNLANDS  SUNNY     90  40  17 W9        29.99F
PRICE          MOSUNNY   84  39  20 S12G21    30.08F
ST GEORGE      PTCLDY    97  43  15 SW20G26   29.91F HX  92
KANAB          MOSUNNY   86  43  22 S13G18    30.12F

$$

REGIONAL REPORTS     COLORADO/ARIZONA

CITY           SKY/WX    TMP DP  RH WIND       PRES   REMARKS
CRAIG, CO      PTSUNNY   76  45  33 S9        30.12F
GRAND JUNCTION MOSUNNY   85  49  28 W7        30.03F
RIFLE          MOSUNNY   76  52  43 S10       30.09F
MONTROSE       PTSUNNY   83  46  27 E5        30.10F
CORTEZ         SUNNY     84  44  24 SW16G22   30.14F
PAGE, AZ       MOSUNNY   91  45  20 NW9       30.00F
GRAND CANYON   MOSUNNY   79  44  28 SW17      30.22F
KINGMAN        PTSUNNY   93  38  14 SW24      29.98F
FLAGSTAFF      PTSUNNY   72  51  47 S16       30.27F

$$

REGIONAL REPORTS    NEVADA/IDAHO/WYOMING

CITY           SKY/WX    TMP DP  RH WIND       PRES   REMARKS
LAS VEGAS, NV  MOSUNNY  100  41  13 S15G25    29.79F HX  95
ELY            MOSUNNY   78  39  24 S15G23    30.05F
ELKO           SUNNY     88  25  10 SW13G22   29.89F
POCATELLO, ID  MOSUNNY   89  34  14 W15       29.87F
BURLEY         SUNNY     84  35  17 W6        29.83F
EVANSTON, WY   MOSUNNY   79  32  18 SW16G32   30.12F
ROCK SPRINGS   MOSUNNY   78  37  22 S12       30.08F
KEMMERER       MOSUNNY   79  32  18 SW28G33   30.12F

$$


USA.gov is the U.S. government's official web portal to all federal, state and local government web resources and services.